Year,Month,Day,Hour,Minute,Value (Times are PST for temperature in C)
2008,06,02,00,00,9.70
2008,06,02,00,01,9.70
2008,06,02,00,02,9.70
2008,06,02,00,03,9.70
2008,06,02,00,04,9.70
2008,06,02,00,05,9.70
2008,06,02,00,06,9.80
2008,06,02,00,07,9.80
2008,06,02,00,08,9.80
2008,06,02,00,09,9.80
2008,06,02,00,10,9.80
2008,06,02,00,11,9.80
2008,06,02,00,12,9.70
2008,06,02,00,13,9.70
2008,06,02,00,14,9.60
2008,06,02,00,15,9.60
2008,06,02,00,16,9.60
2008,06,02,00,17,9.60
2008,06,02,00,18,9.70
2008,06,02,00,19,9.80
2008,06,02,00,20,9.90
2008,06,02,00,21,10.00
2008,06,02,00,22,10.10
2008,06,02,00,23,10.10
2008,06,02,00,24,10.30
2008,06,02,00,25,10.30
2008,06,02,00,26,10.30
2008,06,02,00,27,10.30
2008,06,02,00,28,10.40
2008,06,02,00,29,10.40
2008,06,02,00,30,10.50
2008,06,02,00,31,10.50
2008,06,02,00,32,10.50
2008,06,02,00,33,10.50
2008,06,02,00,34,10.50
2008,06,02,00,35,10.50
2008,06,02,00,36,10.50
2008,06,02,00,37,10.50
2008,06,02,00,38,10.50
2008,06,02,00,39,10.60
2008,06,02,00,40,10.70
2008,06,02,00,41,10.80
2008,06,02,00,42,10.90
2008,06,02,00,43,10.90
2008,06,02,00,44,11.00
2008,06,02,00,45,11.10
2008,06,02,00,46,11.10
2008,06,02,00,47,11.20
2008,06,02,00,48,11.20
2008,06,02,00,49,11.20
2008,06,02,00,50,11.20
2008,06,02,00,51,11.30
2008,06,02,00,52,11.30
2008,06,02,00,53,11.30
2008,06,02,00,54,11.30
2008,06,02,00,55,11.30
2008,06,02,00,56,11.40
2008,06,02,00,57,11.40
2008,06,02,00,58,11.30
2008,06,02,00,59,11.30
2008,06,02,01,00,11.30
2008,06,02,01,01,11.30
2008,06,02,01,02,11.30
2008,06,02,01,03,11.30
2008,06,02,01,04,11.30
2008,06,02,01,05,11.20
2008,06,02,01,06,11.20
2008,06,02,01,07,11.20
2008,06,02,01,08,11.20
2008,06,02,01,09,11.10
2008,06,02,01,10,11.10
2008,06,02,01,11,11.10
2008,06,02,01,12,11.00
2008,06,02,01,13,10.90
2008,06,02,01,14,10.80
2008,06,02,01,15,10.70
2008,06,02,01,16,10.60
2008,06,02,01,17,10.60
2008,06,02,01,18,10.50
2008,06,02,01,19,10.40
2008,06,02,01,20,10.30
2008,06,02,01,21,10.30
2008,06,02,01,22,10.30
2008,06,02,01,23,10.20
2008,06,02,01,24,10.20
2008,06,02,01,25,10.10
2008,06,02,01,26,10.10
2008,06,02,01,27,10.10
2008,06,02,01,28,10.00
2008,06,02,01,29,9.90
2008,06,02,01,30,9.90
2008,06,02,01,31,9.90
2008,06,02,01,32,9.80
2008,06,02,01,33,9.80
2008,06,02,01,34,9.80
2008,06,02,01,35,9.70
2008,06,02,01,36,9.70
2008,06,02,01,37,9.70
2008,06,02,01,38,9.60
2008,06,02,01,39,9.60
2008,06,02,01,40,9.60
2008,06,02,01,41,9.60
2008,06,02,01,42,9.60
2008,06,02,01,43,9.60
2008,06,02,01,44,9.60
2008,06,02,01,45,9.60
2008,06,02,01,46,9.60
2008,06,02,01,47,9.60
2008,06,02,01,48,9.60
2008,06,02,01,49,9.60
2008,06,02,01,50,9.60
2008,06,02,01,51,9.60
2008,06,02,01,52,9.60
2008,06,02,01,53,9.70
2008,06,02,01,54,9.70
2008,06,02,01,55,9.60
2008,06,02,01,56,9.60
2008,06,02,01,57,9.60
2008,06,02,01,58,9.60
2008,06,02,01,59,9.50
2008,06,02,02,00,9.50
2008,06,02,02,01,9.50
2008,06,02,02,02,9.50
2008,06,02,02,03,9.40
2008,06,02,02,04,9.40
2008,06,02,02,05,9.40
2008,06,02,02,06,9.40
2008,06,02,02,07,9.40
2008,06,02,02,08,9.40
2008,06,02,02,09,9.30
2008,06,02,02,10,9.30
2008,06,02,02,11,9.30
2008,06,02,02,12,9.30
2008,06,02,02,13,9.30
2008,06,02,02,14,9.30
2008,06,02,02,15,9.20
2008,06,02,02,16,9.20
2008,06,02,02,17,9.20
2008,06,02,02,18,9.10
2008,06,02,02,19,9.10
2008,06,02,02,20,9.00
2008,06,02,02,21,9.00
2008,06,02,02,22,9.00
2008,06,02,02,23,8.90
2008,06,02,02,24,9.00
2008,06,02,02,25,9.00
2008,06,02,02,26,9.00
2008,06,02,02,27,8.90
2008,06,02,02,28,8.90
2008,06,02,02,29,8.90
2008,06,02,02,30,8.90
2008,06,02,02,31,8.90
2008,06,02,02,32,8.90
2008,06,02,02,33,8.90
2008,06,02,02,34,8.90
2008,06,02,02,35,8.90
2008,06,02,02,36,9.00
2008,06,02,02,37,9.00
2008,06,02,02,38,9.10
2008,06,02,02,39,9.10
2008,06,02,02,40,9.10
2008,06,02,02,41,9.10
2008,06,02,02,42,9.10
2008,06,02,02,43,9.00
2008,06,02,02,44,9.00
2008,06,02,02,45,9.00
2008,06,02,02,46,8.90
2008,06,02,02,47,8.90
2008,06,02,02,48,8.90
2008,06,02,02,49,9.00
2008,06,02,02,50,9.00
2008,06,02,02,51,9.10
2008,06,02,02,52,9.20
2008,06,02,02,53,9.20
2008,06,02,02,54,9.20
2008,06,02,02,55,9.20
2008,06,02,02,56,9.20
2008,06,02,02,57,9.10
2008,06,02,02,58,9.10
2008,06,02,02,59,9.00
2008,06,02,03,00,9.00
2008,06,02,03,01,8.90
2008,06,02,03,02,8.80
2008,06,02,03,03,8.70
2008,06,02,03,04,8.70
2008,06,02,03,05,8.60
2008,06,02,03,06,8.60
2008,06,02,03,07,8.60
2008,06,02,03,08,8.60
2008,06,02,03,09,8.60
2008,06,02,03,10,8.60
2008,06,02,03,11,8.60
2008,06,02,03,12,8.60
2008,06,02,03,13,8.50
2008,06,02,03,14,8.50
2008,06,02,03,15,8.40
2008,06,02,03,16,8.40
2008,06,02,03,17,8.40
2008,06,02,03,18,8.40
2008,06,02,03,19,8.40
2008,06,02,03,20,8.50
2008,06,02,03,21,8.50
2008,06,02,03,22,8.50
2008,06,02,03,23,8.40
2008,06,02,03,24,8.40
2008,06,02,03,25,8.40
2008,06,02,03,26,8.40
2008,06,02,03,27,8.40
2008,06,02,03,28,8.40
2008,06,02,03,29,8.40
2008,06,02,03,30,8.40
2008,06,02,03,31,8.40
2008,06,02,03,32,8.40
2008,06,02,03,33,8.40
2008,06,02,03,34,8.50
2008,06,02,03,35,8.60
2008,06,02,03,36,8.70
2008,06,02,03,37,8.70
2008,06,02,03,38,8.70
2008,06,02,03,39,8.70
2008,06,02,03,40,8.70
2008,06,02,03,41,8.60
2008,06,02,03,42,8.60
2008,06,02,03,43,8.60
2008,06,02,03,44,8.60
2008,06,02,03,45,8.60
2008,06,02,03,46,8.60
2008,06,02,03,47,8.60
2008,06,02,03,48,8.50
2008,06,02,03,49,8.40
2008,06,02,03,50,8.40
2008,06,02,03,51,8.40
2008,06,02,03,52,8.30
2008,06,02,03,53,8.30
2008,06,02,03,54,8.30
2008,06,02,03,55,8.30
2008,06,02,03,56,8.30
2008,06,02,03,57,8.30
2008,06,02,03,58,8.30
2008,06,02,03,59,8.30
2008,06,02,04,00,8.30
2008,06,02,04,01,8.40
2008,06,02,04,02,8.60
2008,06,02,04,03,8.70
2008,06,02,04,04,8.80
2008,06,02,04,05,8.80
2008,06,02,04,06,8.90
2008,06,02,04,07,8.90
2008,06,02,04,08,8.90
2008,06,02,04,09,9.00
2008,06,02,04,10,9.10
2008,06,02,04,11,9.20
2008,06,02,04,12,9.30
2008,06,02,04,13,9.40
2008,06,02,04,14,9.40
2008,06,02,04,15,9.50
2008,06,02,04,16,9.60
2008,06,02,04,17,9.60
2008,06,02,04,18,9.50
2008,06,02,04,19,9.50
2008,06,02,04,20,9.50
2008,06,02,04,21,9.50
2008,06,02,04,22,9.50
2008,06,02,04,23,9.50
2008,06,02,04,24,9.50
2008,06,02,04,25,9.40
2008,06,02,04,26,9.40
2008,06,02,04,27,9.30
2008,06,02,04,28,9.30
2008,06,02,04,29,9.30
2008,06,02,04,30,9.30
2008,06,02,04,31,9.40
2008,06,02,04,32,9.40
2008,06,02,04,33,9.40
2008,06,02,04,34,9.40
2008,06,02,04,35,9.40
2008,06,02,04,36,9.30
2008,06,02,04,37,9.20
2008,06,02,04,38,9.20
2008,06,02,04,39,9.10
2008,06,02,04,40,9.00
2008,06,02,04,41,8.90
2008,06,02,04,42,8.90
2008,06,02,04,43,8.90
2008,06,02,04,44,8.90
2008,06,02,04,45,8.90
2008,06,02,04,46,9.00
2008,06,02,04,47,9.00
2008,06,02,04,48,9.00
2008,06,02,04,49,9.00
2008,06,02,04,50,9.10
2008,06,02,04,51,9.10
2008,06,02,04,52,9.10
2008,06,02,04,53,9.10
2008,06,02,04,54,9.10
2008,06,02,04,55,9.20
2008,06,02,04,56,9.20
2008,06,02,04,57,9.30
2008,06,02,04,58,9.30
2008,06,02,04,59,9.30
2008,06,02,05,00,9.30
2008,06,02,05,01,9.30
2008,06,02,05,02,9.30
2008,06,02,05,03,9.30
2008,06,02,05,04,9.40
2008,06,02,05,05,9.40
2008,06,02,05,06,9.50
2008,06,02,05,07,9.40
2008,06,02,05,08,9.40
2008,06,02,05,09,9.40
2008,06,02,05,10,9.40
2008,06,02,05,11,9.50
2008,06,02,05,12,9.50
2008,06,02,05,13,9.50
2008,06,02,05,14,9.50
2008,06,02,05,15,9.50
2008,06,02,05,16,9.60
2008,06,02,05,17,9.50
2008,06,02,05,18,9.50
2008,06,02,05,19,9.50
2008,06,02,05,20,9.50
2008,06,02,05,21,9.60
2008,06,02,05,22,9.60
2008,06,02,05,23,9.60
2008,06,02,05,24,9.70
2008,06,02,05,25,9.80
2008,06,02,05,26,9.80
2008,06,02,05,27,9.90
2008,06,02,05,28,10.00
2008,06,02,05,29,10.00
2008,06,02,05,30,10.10
2008,06,02,05,31,10.10
2008,06,02,05,32,10.20
2008,06,02,05,33,10.20
2008,06,02,05,34,10.20
2008,06,02,05,35,10.20
2008,06,02,05,36,10.30
2008,06,02,05,37,10.30
2008,06,02,05,38,10.40
2008,06,02,05,39,10.40
2008,06,02,05,40,10.40
2008,06,02,05,41,10.40
2008,06,02,05,42,10.40
2008,06,02,05,43,10.40
2008,06,02,05,44,10.40
2008,06,02,05,45,10.40
2008,06,02,05,46,10.30
2008,06,02,05,47,10.40
2008,06,02,05,48,10.40
2008,06,02,05,49,10.40
2008,06,02,05,50,10.30
2008,06,02,05,51,10.30
2008,06,02,05,52,10.30
2008,06,02,05,53,10.30
2008,06,02,05,54,10.30
2008,06,02,05,55,10.30
2008,06,02,05,56,10.30
2008,06,02,05,57,10.20
2008,06,02,05,58,10.20
2008,06,02,05,59,10.20
2008,06,02,06,00,10.20
2008,06,02,06,01,10.20
2008,06,02,06,02,10.20
2008,06,02,06,03,10.20
2008,06,02,06,04,10.20
2008,06,02,06,05,10.20
2008,06,02,06,06,10.20
2008,06,02,06,07,10.10
2008,06,02,06,08,10.10
2008,06,02,06,09,10.10
2008,06,02,06,10,10.10
2008,06,02,06,11,10.10
2008,06,02,06,12,10.20
2008,06,02,06,13,10.20
2008,06,02,06,14,10.30
2008,06,02,06,15,10.30
2008,06,02,06,16,10.30
2008,06,02,06,17,10.30
2008,06,02,06,18,10.40
2008,06,02,06,19,10.40
2008,06,02,06,20,10.40
2008,06,02,06,21,10.40
2008,06,02,06,22,10.40
2008,06,02,06,23,10.30
2008,06,02,06,24,10.30
2008,06,02,06,25,10.30
2008,06,02,06,26,10.30
2008,06,02,06,27,10.30
2008,06,02,06,28,10.30
2008,06,02,06,29,10.30
2008,06,02,06,30,10.20
2008,06,02,06,31,10.20
2008,06,02,06,32,10.20
2008,06,02,06,33,10.20
2008,06,02,06,34,10.20
2008,06,02,06,35,10.20
2008,06,02,06,36,10.20
2008,06,02,06,37,10.20
2008,06,02,06,38,10.20
2008,06,02,06,39,10.20
2008,06,02,06,40,10.20
2008,06,02,06,41,10.30
2008,06,02,06,42,10.30
2008,06,02,06,43,10.30
2008,06,02,06,44,10.30
2008,06,02,06,45,10.30
2008,06,02,06,46,10.30
2008,06,02,06,47,10.40
2008,06,02,06,48,10.40
2008,06,02,06,49,10.40
2008,06,02,06,50,10.50
2008,06,02,06,51,10.50
2008,06,02,06,52,10.60
2008,06,02,06,53,10.60
2008,06,02,06,54,10.60
2008,06,02,06,55,10.70
2008,06,02,06,56,10.80
2008,06,02,06,57,10.80
2008,06,02,06,58,10.90
2008,06,02,06,59,10.90
2008,06,02,07,00,11.00
2008,06,02,07,01,11.00
2008,06,02,07,02,11.10
2008,06,02,07,03,11.10
2008,06,02,07,04,11.10
2008,06,02,07,05,11.20
2008,06,02,07,06,11.20
2008,06,02,07,07,11.30
2008,06,02,07,08,11.30
2008,06,02,07,09,11.30
2008,06,02,07,10,11.30
2008,06,02,07,11,11.30
2008,06,02,07,12,11.30
2008,06,02,07,13,11.40
2008,06,02,07,14,11.40
2008,06,02,07,15,11.50
2008,06,02,07,16,11.50
2008,06,02,07,17,11.50
2008,06,02,07,18,11.60
2008,06,02,07,19,11.60
2008,06,02,07,20,11.70
2008,06,02,07,21,11.70
2008,06,02,07,22,11.80
2008,06,02,07,23,11.80
2008,06,02,07,24,11.90
2008,06,02,07,25,11.90
2008,06,02,07,26,11.90
2008,06,02,07,27,11.90
2008,06,02,07,28,11.90
2008,06,02,07,29,11.90
2008,06,02,07,30,12.00
2008,06,02,07,31,12.00
2008,06,02,07,32,12.00
2008,06,02,07,33,12.00
2008,06,02,07,34,12.00
2008,06,02,07,35,11.90
2008,06,02,07,36,12.00
2008,06,02,07,37,11.90
2008,06,02,07,38,12.00
2008,06,02,07,39,11.90
2008,06,02,07,40,11.90
2008,06,02,07,41,11.90
2008,06,02,07,42,11.90
2008,06,02,07,43,11.90
2008,06,02,07,44,11.90
2008,06,02,07,45,11.90
2008,06,02,07,46,11.90
2008,06,02,07,47,11.90
2008,06,02,07,48,11.90
2008,06,02,07,49,11.90
2008,06,02,07,50,11.90
2008,06,02,07,51,11.90
2008,06,02,07,52,12.00
2008,06,02,07,53,12.00
2008,06,02,07,54,12.00
2008,06,02,07,55,12.00
2008,06,02,07,56,12.10
2008,06,02,07,57,12.10
2008,06,02,07,58,12.10
2008,06,02,07,59,12.10
2008,06,02,08,00,12.20
2008,06,02,08,01,12.20
2008,06,02,08,02,12.20
2008,06,02,08,03,12.20
2008,06,02,08,04,12.30
2008,06,02,08,05,12.30
2008,06,02,08,06,12.30
2008,06,02,08,07,12.30
2008,06,02,08,08,12.30
2008,06,02,08,09,12.30
2008,06,02,08,10,12.30
2008,06,02,08,11,12.30
2008,06,02,08,12,12.30
2008,06,02,08,13,12.30
2008,06,02,08,14,12.40
2008,06,02,08,15,12.40
2008,06,02,08,16,12.40
2008,06,02,08,17,12.40
2008,06,02,08,18,12.50
2008,06,02,08,19,12.60
2008,06,02,08,20,12.70
2008,06,02,08,21,12.70
2008,06,02,08,22,12.80
2008,06,02,08,23,12.80
2008,06,02,08,24,12.90
2008,06,02,08,25,12.90
2008,06,02,08,26,12.90
2008,06,02,08,27,13.00
2008,06,02,08,28,12.90
2008,06,02,08,29,12.90
2008,06,02,08,30,13.00
2008,06,02,08,31,13.00
2008,06,02,08,32,13.00
2008,06,02,08,33,13.00
2008,06,02,08,34,13.00
2008,06,02,08,35,12.90
2008,06,02,08,36,12.90
2008,06,02,08,37,12.90
2008,06,02,08,38,12.90
2008,06,02,08,39,12.80
2008,06,02,08,40,12.80
2008,06,02,08,41,12.80
2008,06,02,08,42,12.80
2008,06,02,08,43,12.80
2008,06,02,08,44,12.80
2008,06,02,08,45,12.80
2008,06,02,08,46,12.90
2008,06,02,08,47,12.90
2008,06,02,08,48,13.00
2008,06,02,08,49,13.00
2008,06,02,08,50,13.00
2008,06,02,08,51,12.90
2008,06,02,08,52,12.80
2008,06,02,08,53,12.80
2008,06,02,08,54,12.80
2008,06,02,08,55,12.80
2008,06,02,08,56,12.80
2008,06,02,08,57,12.80
2008,06,02,08,58,12.80
2008,06,02,08,59,12.90
2008,06,02,09,00,12.90
2008,06,02,09,01,12.90
2008,06,02,09,02,12.90
2008,06,02,09,03,12.90
2008,06,02,09,04,12.80
2008,06,02,09,05,12.80
2008,06,02,09,06,12.90
2008,06,02,09,07,12.90
2008,06,02,09,08,13.00
2008,06,02,09,09,13.10
2008,06,02,09,10,13.10
2008,06,02,09,11,13.00
2008,06,02,09,12,12.90
2008,06,02,09,13,13.00
2008,06,02,09,14,13.00
2008,06,02,09,15,13.00
2008,06,02,09,16,13.10
2008,06,02,09,17,13.10
2008,06,02,09,18,13.00
2008,06,02,09,19,13.00
2008,06,02,09,20,13.10
2008,06,02,09,21,13.10
2008,06,02,09,22,13.20
2008,06,02,09,23,13.20
2008,06,02,09,24,13.30
2008,06,02,09,25,13.30
2008,06,02,09,26,13.40
2008,06,02,09,27,13.40
2008,06,02,09,28,13.30
2008,06,02,09,29,13.30
2008,06,02,09,30,13.30
2008,06,02,09,31,13.30
2008,06,02,09,32,13.20
2008,06,02,09,33,13.20
2008,06,02,09,34,13.20
2008,06,02,09,35,13.20
2008,06,02,09,36,13.20
2008,06,02,09,37,13.20
2008,06,02,09,38,13.10
2008,06,02,09,39,13.00
2008,06,02,09,40,12.90
2008,06,02,09,41,12.90
2008,06,02,09,42,12.80
2008,06,02,09,43,12.90
2008,06,02,09,44,12.90
2008,06,02,09,45,12.90
2008,06,02,09,46,13.00
2008,06,02,09,47,13.00
2008,06,02,09,48,12.90
2008,06,02,09,49,13.00
2008,06,02,09,50,13.10
2008,06,02,09,51,13.20
2008,06,02,09,52,13.20
2008,06,02,09,53,13.20
2008,06,02,09,54,13.30
2008,06,02,09,55,13.30
2008,06,02,09,56,13.40
2008,06,02,09,57,13.50
2008,06,02,09,58,13.60
2008,06,02,09,59,13.60
2008,06,02,10,00,13.50
2008,06,02,10,01,13.50
2008,06,02,10,02,13.40
2008,06,02,10,03,13.30
2008,06,02,10,04,13.40
2008,06,02,10,05,13.40
2008,06,02,10,06,13.40
2008,06,02,10,07,13.30
2008,06,02,10,08,13.40
2008,06,02,10,09,13.50
2008,06,02,10,10,13.60
2008,06,02,10,11,13.60
2008,06,02,10,12,13.70
2008,06,02,10,13,13.70
2008,06,02,10,14,13.80
2008,06,02,10,15,13.80
2008,06,02,10,16,13.70
2008,06,02,10,17,13.70
2008,06,02,10,18,13.70
2008,06,02,10,19,13.50
2008,06,02,10,20,13.40
2008,06,02,10,21,13.40
2008,06,02,10,22,13.40
2008,06,02,10,23,13.20
2008,06,02,10,24,13.10
2008,06,02,10,25,13.20
2008,06,02,10,26,13.20
2008,06,02,10,27,13.20
2008,06,02,10,28,13.20
2008,06,02,10,29,13.30
2008,06,02,10,30,13.40
2008,06,02,10,31,13.40
2008,06,02,10,32,13.40
2008,06,02,10,33,13.40
2008,06,02,10,34,13.40
2008,06,02,10,35,13.40
2008,06,02,10,36,13.40
2008,06,02,10,37,13.30
2008,06,02,10,38,13.20
2008,06,02,10,39,13.20
2008,06,02,10,40,13.30
2008,06,02,10,41,13.30
2008,06,02,10,42,13.30
2008,06,02,10,43,13.30
2008,06,02,10,44,13.30
2008,06,02,10,45,13.30
2008,06,02,10,46,13.30
2008,06,02,10,47,13.40
2008,06,02,10,48,13.40
2008,06,02,10,49,13.30
2008,06,02,10,50,13.30
2008,06,02,10,51,13.20
2008,06,02,10,52,13.10
2008,06,02,10,53,13.20
2008,06,02,10,54,13.30
2008,06,02,10,55,13.40
2008,06,02,10,56,13.40
2008,06,02,10,57,13.40
2008,06,02,10,58,13.40
2008,06,02,10,59,13.30
2008,06,02,11,00,13.20
2008,06,02,11,01,13.10
2008,06,02,11,02,12.90
2008,06,02,11,03,12.80
2008,06,02,11,04,12.80
2008,06,02,11,05,12.80
2008,06,02,11,06,12.90
2008,06,02,11,07,12.90
2008,06,02,11,08,12.90
2008,06,02,11,09,12.80
2008,06,02,11,10,12.80
2008,06,02,11,11,12.80
2008,06,02,11,12,12.80
2008,06,02,11,13,12.80
2008,06,02,11,14,12.90
2008,06,02,11,15,12.90
2008,06,02,11,16,12.90
2008,06,02,11,17,12.80
2008,06,02,11,18,12.70
2008,06,02,11,19,12.80
2008,06,02,11,20,12.70
2008,06,02,11,21,12.70
2008,06,02,11,22,12.60
2008,06,02,11,23,12.60
2008,06,02,11,24,12.60
2008,06,02,11,25,12.60
2008,06,02,11,26,12.60
2008,06,02,11,27,12.50
2008,06,02,11,28,12.50
2008,06,02,11,29,12.50
2008,06,02,11,30,12.50
2008,06,02,11,31,12.50
2008,06,02,11,32,12.50
2008,06,02,11,33,12.50
2008,06,02,11,34,12.60
2008,06,02,11,35,12.60
2008,06,02,11,36,12.60
2008,06,02,11,37,12.60
2008,06,02,11,38,12.60
2008,06,02,11,39,12.50
2008,06,02,11,40,12.50
2008,06,02,11,41,12.40
2008,06,02,11,42,12.40
2008,06,02,11,43,12.40
2008,06,02,11,44,12.40
2008,06,02,11,45,12.30
2008,06,02,11,46,12.30
2008,06,02,11,47,12.30
2008,06,02,11,48,12.30
2008,06,02,11,49,12.40
2008,06,02,11,50,12.40
2008,06,02,11,51,12.40
2008,06,02,11,52,12.40
2008,06,02,11,53,12.40
2008,06,02,11,54,12.50
2008,06,02,11,55,12.50
2008,06,02,11,56,12.60
2008,06,02,11,57,12.70
2008,06,02,11,58,12.70
2008,06,02,11,59,12.60
2008,06,02,12,00,12.60
2008,06,02,12,01,12.60
2008,06,02,12,02,12.60
2008,06,02,12,03,12.60
2008,06,02,12,04,12.60
2008,06,02,12,05,12.70
2008,06,02,12,06,12.80
2008,06,02,12,07,12.90
2008,06,02,12,08,12.90
2008,06,02,12,09,12.90
2008,06,02,12,10,13.00
2008,06,02,12,11,13.00
2008,06,02,12,12,12.90
2008,06,02,12,13,12.90
2008,06,02,12,14,12.90
2008,06,02,12,15,12.90
2008,06,02,12,16,12.80
2008,06,02,12,17,12.80
2008,06,02,12,18,12.80
2008,06,02,12,19,12.80
2008,06,02,12,20,12.90
2008,06,02,12,21,12.90
2008,06,02,12,22,12.90
2008,06,02,12,23,12.90
2008,06,02,12,24,12.90
2008,06,02,12,25,12.80
2008,06,02,12,26,12.80
2008,06,02,12,27,12.80
2008,06,02,12,28,12.80
2008,06,02,12,29,12.80
2008,06,02,12,30,12.80
2008,06,02,12,31,12.80
2008,06,02,12,32,12.80
2008,06,02,12,33,12.80
2008,06,02,12,34,12.80
2008,06,02,12,35,12.80
2008,06,02,12,36,12.80
2008,06,02,12,37,12.80
2008,06,02,12,38,12.80
2008,06,02,12,39,12.80
2008,06,02,12,40,12.80
2008,06,02,12,41,12.70
2008,06,02,12,42,12.60
2008,06,02,12,43,12.60
2008,06,02,12,44,12.60
2008,06,02,12,45,12.60
2008,06,02,12,46,12.60
2008,06,02,12,47,12.60
2008,06,02,12,48,12.60
2008,06,02,12,49,12.60
2008,06,02,12,50,12.60
2008,06,02,12,51,12.60
2008,06,02,12,52,12.60
2008,06,02,12,53,12.60
2008,06,02,12,54,12.60
2008,06,02,12,55,12.60
2008,06,02,12,56,12.60
2008,06,02,12,57,12.60
2008,06,02,12,58,12.60
2008,06,02,12,59,12.70
2008,06,02,13,00,12.70
2008,06,02,13,01,12.70
2008,06,02,13,02,12.70
2008,06,02,13,03,12.90
2008,06,02,13,04,13.00
2008,06,02,13,05,13.00
2008,06,02,13,06,13.10
2008,06,02,13,07,13.10
2008,06,02,13,08,13.10
2008,06,02,13,09,13.20
2008,06,02,13,10,13.30
2008,06,02,13,11,13.30
2008,06,02,13,12,13.40
2008,06,02,13,13,13.40
2008,06,02,13,14,13.50
2008,06,02,13,15,13.60
2008,06,02,13,16,13.60
2008,06,02,13,17,13.60
2008,06,02,13,18,13.70
2008,06,02,13,19,13.70
2008,06,02,13,20,13.60
2008,06,02,13,21,13.50
2008,06,02,13,22,13.50
2008,06,02,13,23,13.50
2008,06,02,13,24,13.50
2008,06,02,13,25,13.60
2008,06,02,13,26,13.50
2008,06,02,13,27,13.50
2008,06,02,13,28,13.60
2008,06,02,13,29,13.70
2008,06,02,13,30,13.80
2008,06,02,13,31,13.90
2008,06,02,13,32,13.90
2008,06,02,13,33,13.90
2008,06,02,13,34,13.80
2008,06,02,13,35,13.80
2008,06,02,13,36,13.80
2008,06,02,13,37,13.80
2008,06,02,13,38,13.60
2008,06,02,13,39,13.60
2008,06,02,13,40,13.60
2008,06,02,13,41,13.60
2008,06,02,13,42,13.70
2008,06,02,13,43,13.70
2008,06,02,13,44,13.50
2008,06,02,13,45,13.50
2008,06,02,13,46,13.40
2008,06,02,13,47,13.30
2008,06,02,13,48,13.30
2008,06,02,13,49,13.30
2008,06,02,13,50,13.30
2008,06,02,13,51,13.20
2008,06,02,13,52,13.20
2008,06,02,13,53,13.20
2008,06,02,13,54,13.20
2008,06,02,13,55,13.10
2008,06,02,13,56,13.10
2008,06,02,13,57,13.10
2008,06,02,13,58,13.10
2008,06,02,13,59,13.10
2008,06,02,14,00,13.10
2008,06,02,14,01,13.10
2008,06,02,14,02,13.20
2008,06,02,14,03,13.20
2008,06,02,14,04,13.30
2008,06,02,14,05,13.30
2008,06,02,14,06,13.30
2008,06,02,14,07,13.30
2008,06,02,14,08,13.30
2008,06,02,14,09,13.30
2008,06,02,14,10,13.30
2008,06,02,14,11,13.20
2008,06,02,14,12,13.20
2008,06,02,14,13,13.20
2008,06,02,14,14,13.20
2008,06,02,14,15,13.20
2008,06,02,14,16,13.20
2008,06,02,14,17,13.20
2008,06,02,14,18,13.30
2008,06,02,14,19,13.20
2008,06,02,14,20,13.20
2008,06,02,14,21,13.20
2008,06,02,14,22,13.30
2008,06,02,14,23,13.30
2008,06,02,14,24,13.30
2008,06,02,14,25,13.30
2008,06,02,14,26,13.30
2008,06,02,14,27,13.40
2008,06,02,14,28,13.40
2008,06,02,14,29,13.50
2008,06,02,14,30,13.40
2008,06,02,14,31,13.40
2008,06,02,14,32,13.30
2008,06,02,14,33,13.30
2008,06,02,14,34,13.30
2008,06,02,14,35,13.40
2008,06,02,14,36,13.40
2008,06,02,14,37,13.50
2008,06,02,14,38,13.50
2008,06,02,14,39,13.60
2008,06,02,14,40,13.60
2008,06,02,14,41,13.60
2008,06,02,14,42,13.60
2008,06,02,14,43,13.60
2008,06,02,14,44,13.70
2008,06,02,14,45,13.80
2008,06,02,14,46,13.80
2008,06,02,14,47,13.90
2008,06,02,14,48,13.90
2008,06,02,14,49,14.00
2008,06,02,14,50,14.00
2008,06,02,14,51,14.10
2008,06,02,14,52,14.10
2008,06,02,14,53,14.20
2008,06,02,14,54,14.20
2008,06,02,14,55,14.20
2008,06,02,14,56,14.30
2008,06,02,14,57,14.30
2008,06,02,14,58,14.30
2008,06,02,14,59,14.30
2008,06,02,15,00,14.30
2008,06,02,15,01,14.40
2008,06,02,15,02,14.30
2008,06,02,15,03,14.20
2008,06,02,15,04,14.10
2008,06,02,15,05,14.10
2008,06,02,15,06,14.10
2008,06,02,15,07,14.20
2008,06,02,15,08,14.30
2008,06,02,15,09,14.20
2008,06,02,15,10,14.20
2008,06,02,15,11,14.10
2008,06,02,15,12,14.00
2008,06,02,15,13,13.90
2008,06,02,15,14,13.80
2008,06,02,15,15,13.80
2008,06,02,15,16,13.80
2008,06,02,15,17,13.70
2008,06,02,15,18,13.70
2008,06,02,15,19,13.70
2008,06,02,15,20,13.70
2008,06,02,15,21,13.70
2008,06,02,15,22,13.70
2008,06,02,15,23,13.80
2008,06,02,15,24,13.80
2008,06,02,15,25,13.90
2008,06,02,15,26,13.90
2008,06,02,15,27,13.90
2008,06,02,15,28,14.00
2008,06,02,15,29,14.00
2008,06,02,15,30,13.90
2008,06,02,15,31,13.90
2008,06,02,15,32,14.00
2008,06,02,15,33,14.00
2008,06,02,15,34,14.10
2008,06,02,15,35,14.20
2008,06,02,15,36,14.20
2008,06,02,15,37,14.30
2008,06,02,15,38,14.40
2008,06,02,15,39,14.40
2008,06,02,15,40,14.40
2008,06,02,15,41,14.40
2008,06,02,15,42,14.40
2008,06,02,15,43,14.40
2008,06,02,15,44,14.40
2008,06,02,15,45,14.40
2008,06,02,15,46,14.50
2008,06,02,15,47,14.60
2008,06,02,15,48,14.70
2008,06,02,15,49,14.70
2008,06,02,15,50,14.80
2008,06,02,15,51,14.90
2008,06,02,15,52,14.90
2008,06,02,15,53,14.80
2008,06,02,15,54,14.90
2008,06,02,15,55,14.90
2008,06,02,15,56,14.90
2008,06,02,15,57,15.00
2008,06,02,15,58,15.00
2008,06,02,15,59,14.90
2008,06,02,16,00,14.90
2008,06,02,16,01,14.80
2008,06,02,16,02,14.80
2008,06,02,16,03,14.70
2008,06,02,16,04,14.60
2008,06,02,16,05,14.50
2008,06,02,16,06,14.40
2008,06,02,16,07,14.30
2008,06,02,16,08,14.20
2008,06,02,16,09,14.20
2008,06,02,16,10,14.10
2008,06,02,16,11,14.10
2008,06,02,16,12,14.10
2008,06,02,16,13,14.10
2008,06,02,16,14,14.10
2008,06,02,16,15,14.10
2008,06,02,16,16,14.10
2008,06,02,16,17,14.10
2008,06,02,16,18,14.10
2008,06,02,16,19,14.00
2008,06,02,16,20,14.00
2008,06,02,16,21,14.00
2008,06,02,16,22,14.00
2008,06,02,16,23,14.00
2008,06,02,16,24,14.10
2008,06,02,16,25,14.10
2008,06,02,16,26,14.10
2008,06,02,16,27,14.20
2008,06,02,16,28,14.30
2008,06,02,16,29,14.30
2008,06,02,16,30,14.40
2008,06,02,16,31,14.40
2008,06,02,16,32,14.40
2008,06,02,16,33,14.40
2008,06,02,16,34,14.50
2008,06,02,16,35,14.50
2008,06,02,16,36,14.60
2008,06,02,16,37,14.60
2008,06,02,16,38,14.60
2008,06,02,16,39,14.50
2008,06,02,16,40,14.50
2008,06,02,16,41,14.60
2008,06,02,16,42,14.60
2008,06,02,16,43,14.70
2008,06,02,16,44,14.80
2008,06,02,16,45,14.80
2008,06,02,16,46,14.80
2008,06,02,16,47,14.80
2008,06,02,16,48,14.80
2008,06,02,16,49,14.80
2008,06,02,16,50,14.80
2008,06,02,16,51,14.70
2008,06,02,16,52,14.70
2008,06,02,16,53,14.70
2008,06,02,16,54,14.80
2008,06,02,16,55,14.80
2008,06,02,16,56,14.80
2008,06,02,16,57,14.80
2008,06,02,16,58,14.80
2008,06,02,16,59,14.80
2008,06,02,17,00,14.80
2008,06,02,17,01,14.70
2008,06,02,17,02,14.70
2008,06,02,17,03,14.70
2008,06,02,17,04,14.70
2008,06,02,17,05,14.70
2008,06,02,17,06,14.70
2008,06,02,17,07,14.70
2008,06,02,17,08,14.70
2008,06,02,17,09,14.60
2008,06,02,17,10,14.60
2008,06,02,17,11,14.60
2008,06,02,17,12,14.60
2008,06,02,17,13,14.50
2008,06,02,17,14,14.50
2008,06,02,17,15,14.50
2008,06,02,17,16,14.40
2008,06,02,17,17,14.40
2008,06,02,17,18,14.40
2008,06,02,17,19,14.40
2008,06,02,17,20,14.40
2008,06,02,17,21,14.40
2008,06,02,17,22,14.40
2008,06,02,17,23,14.40
2008,06,02,17,24,14.40
2008,06,02,17,25,14.40
2008,06,02,17,26,14.40
2008,06,02,17,27,14.40
2008,06,02,17,28,14.40
2008,06,02,17,29,14.40
2008,06,02,17,30,14.40